{"data":{"norad_id":51880,"epoch":"2026-05-25T02:39:17.826336Z","epoch_age_seconds":65737,"freshness":"FRESH","line1":"1 51880U 22022AE  26145.11062299 -.00000299  00000+0 -68284-6 0  9993","line2":"2 51880  53.2145  25.7691 0001547  82.1607 277.9560 15.08837931234656","mean_motion":15.08837931,"eccentricity":0.0001547,"inclination_deg":53.2145,"raan_deg":25.7691,"arg_perigee_deg":82.1607,"mean_anomaly_deg":277.956,"bstar":-6.8284e-7,"rev_number":23465,"period_min":95.437685546891,"perigee_km":538.6795160021,"apogee_km":540.81991015113,"semimajor_km":6917.8867130766,"source":"CELESTRAK","updated_at":"2026-05-25T13:38:16.985689Z"}}